When you browse on this site, cookies collect data to enhance your experience and personalize the content and advertising you see.
Visit our Privacy Policy to learn more. By continuing to use the site, you agree to this use of cookies and data.
  • In Romania
  • List of Countries
  • For 7 days
  • Water Temperature
  • Weather Map
  • Weather Widgets
  • user-avatar
    Login

    Hourly Weather Napoli

    Today, 12 November, Tuesday

    Time Temperature Precipitation Wind Pressure Humidity
    00:00 +17°C° 0.2 mm 4 mps 750 mmHg 70%
    01:00 +16°C° 0 mm 5 mps 749 mmHg 72%
    02:00 +17°C° 0.3 mm 4 mps 748 mmHg 73%
    03:00 +17°C° 0.3 mm 4 mps 747 mmHg 75%
    04:00 +17°C° 0.3 mm 4 mps 746 mmHg 76%
    05:00 +15°C° 0.5 mm 4 mps 745 mmHg 78%
    06:00 +15°C° 0.5 mm 5 mps 745 mmHg 80%
    07:00 +15°C° 0.5 mm 6 mps 744 mmHg 82%
    08:00 +15°C° 0.3 mm 5 mps 744 mmHg 79%
    09:00 +17°C° 0.3 mm 4 mps 744 mmHg 76%
    10:00 +17°C° 0.3 mm 4 mps 744 mmHg 73%
    11:00 +16°C° 0.5 mm 6 mps 743 mmHg 71%
    12:00 +17°C° 0.5 mm 8 mps 743 mmHg 70%
    13:00 +17°C° 0.5 mm 10 mps 743 mmHg 68%
    14:00 +17°C° 0.7 mm 10 mps 743 mmHg 64%
    15:00 +17°C° 0.7 mm 11 mps 743 mmHg 60%
    16:00 +17°C° 0.7 mm 11 mps 743 mmHg 56%
    17:00 +16°C° 0.4 mm 11 mps 744 mmHg 59%
    18:00 +16°C° 0.4 mm 11 mps 744 mmHg 62%
    19:00 +16°C° 0.4 mm 11 mps 744 mmHg 65%
    20:00 +16°C° 0.7 mm 11 mps 744 mmHg 66%
    21:00 +14°C° 0.7 mm 10 mps 744 mmHg 68%
    22:00 +14°C° 0.7 mm 10 mps 744 mmHg 69%
    23:00 +15°C° 0.9 mm 9 mps 743 mmHg 69%

    Tomorrow, 13 November, Wednesday

    Time Temperature Precipitation Wind Pressure Humidity
    00:00 +15°C° 0.9 mm 8 mps 743 mmHg 69%
    01:00 +14°C° 0.9 mm 7 mps 743 mmHg 69%
    02:00 +14°C° 0.4 mm 6 mps 742 mmHg 68%
    03:00 +14°C° 0.4 mm 5 mps 742 mmHg 67%
    04:00 +14°C° 0.4 mm 3 mps 741 mmHg 66%
    05:00 +14°C° 0.2 mm 3 mps 742 mmHg 67%
    06:00 +15°C° 0.2 mm 2 mps 742 mmHg 68%
    07:00 +15°C° 0.2 mm 2 mps 742 mmHg 68%
    08:00 +16°C° 0.1 mm 2 mps 743 mmHg 67%
    09:00 +17°C° 0.1 mm 3 mps 744 mmHg 66%
    10:00 +17°C° 0.1 mm 3 mps 745 mmHg 65%
    11:00 +18°C° 0.6 mm 4 mps 745 mmHg 67%
    12:00 +17°C° 0.6 mm 6 mps 746 mmHg 68%
    13:00 +18°C° 0.6 mm 7 mps 747 mmHg 70%
    14:00 +17°C° 0.9 mm 7 mps 747 mmHg 72%
    15:00 +17°C° 0.9 mm 7 mps 748 mmHg 74%
    16:00 +17°C° 0.9 mm 7 mps 748 mmHg 76%
    17:00 +16°C° 0.4 mm 7 mps 749 mmHg 74%
    18:00 +16°C° 0.4 mm 6 mps 749 mmHg 72%
    19:00 +16°C° 0.4 mm 6 mps 750 mmHg 70%
    20:00 +16°C° 0 mm 5 mps 751 mmHg 68%
    21:00 +15°C° 0 mm 4 mps 751 mmHg 67%
    22:00 +16°C° 0 mm 3 mps 751 mmHg 66%
    23:00 +16°C° 0.1 mm 3 mps 751 mmHg 66%

    Day after tomorrow, 14 November, Thursday

    Time Temperature Precipitation Wind Pressure Humidity
    00:00 +16°C° 0.1 mm 3 mps 751 mmHg 66%
    01:00 +16°C° 0.1 mm 3 mps 751 mmHg 67%
    02:00 +15°C° 0.8 mm 4 mps 751 mmHg 72%
    03:00 +14°C° 0.8 mm 4 mps 751 mmHg 77%
    04:00 +14°C° 0.8 mm 4 mps 750 mmHg 83%
    05:00 +14°C° 1 mm 6 mps 750 mmHg 82%
    06:00 +15°C° 1 mm 7 mps 750 mmHg 82%
    07:00 +15°C° 1 mm 8 mps 750 mmHg 81%
    08:00 +15°C° 1.3 mm 8 mps 751 mmHg 81%
    09:00 +15°C° 1.3 mm 8 mps 751 mmHg 80%
    10:00 +15°C° 1.3 mm 8 mps 751 mmHg 79%
    11:00 +15°C° 1.9 mm 7 mps 751 mmHg 80%
    12:00 +15°C° 1.9 mm 7 mps 751 mmHg 82%
    13:00 +15°C° 1.9 mm 6 mps 751 mmHg 83%
    14:00 +15°C° 0.9 mm 5 mps 751 mmHg 83%
    15:00 +15°C° 0.9 mm 4 mps 751 mmHg 83%
    16:00 +16°C° 0.9 mm 3 mps 752 mmHg 83%
    17:00 +16°C° 0.2 mm 2 mps 752 mmHg 83%
    18:00 +16°C° 0.2 mm 2 mps 752 mmHg 83%
    19:00 +16°C° 0.2 mm 2 mps 753 mmHg 84%
    20:00 +16°C° 0.1 mm 2 mps 753 mmHg 83%
    21:00 +16°C° 0.1 mm 3 mps 754 mmHg 82%
    22:00 +16°C° 0.1 mm 3 mps 754 mmHg 81%
    23:00 +16°C° 0.1 mm 3 mps 754 mmHg 79%

    15 November, Friday

    Time Temperature Precipitation Wind Pressure Humidity
    00:00 +15°C° 0.1 mm 4 mps 754 mmHg 78%
    01:00 +15°C° 0.1 mm 4 mps 754 mmHg 77%
    02:00 +15°C° 0 mm 4 mps 754 mmHg 76%
    03:00 +15°C° 0 mm 4 mps 754 mmHg 74%
    04:00 +15°C° 0 mm 4 mps 754 mmHg 73%
    05:00 +15°C° 0 mm 4 mps 754 mmHg 73%
    06:00 +14°C° 0 mm 5 mps 754 mmHg 74%
    07:00 +14°C° 0 mm 5 mps 754 mmHg 74%
    08:00 +15°C° 0 mm 6 mps 754 mmHg 70%
    09:00 +16°C° 0 mm 6 mps 754 mmHg 65%
    10:00 +17°C° 0 mm 7 mps 754 mmHg 61%
    11:00 +17°C° 0.1 mm 7 mps 754 mmHg 62%
    12:00 +18°C° 0.1 mm 8 mps 754 mmHg 63%
    13:00 +18°C° 0.1 mm 8 mps 754 mmHg 63%
    14:00 +18°C° 0.1 mm 8 mps 754 mmHg 65%
    15:00 +18°C° 0.1 mm 8 mps 754 mmHg 66%
    16:00 +18°C° 0.1 mm 7 mps 754 mmHg 68%
    17:00 +17°C° 0.1 mm 7 mps 754 mmHg 71%
    18:00 +17°C° 0.1 mm 7 mps 754 mmHg 73%
    19:00 +17°C° 0.1 mm 7 mps 755 mmHg 76%
    20:00 +16°C° 0.2 mm 7 mps 755 mmHg 76%
    21:00 +16°C° 0.2 mm 6 mps 755 mmHg 77%
    22:00 +16°C° 0.2 mm 6 mps 755 mmHg 77%
    23:00 +16°C° 0.4 mm 6 mps 755 mmHg 78%

    16 November, Saturday

    Time Temperature Precipitation Wind Pressure Humidity
    00:00 +15°C° 0.4 mm 6 mps 755 mmHg 79%
    01:00 +15°C° 0.4 mm 6 mps 756 mmHg 80%
    02:00 +15°C° 0.6 mm 5 mps 755 mmHg 81%
    03:00 +15°C° 0.6 mm 5 mps 755 mmHg 81%
    04:00 +15°C° 0.6 mm 5 mps 755 mmHg 82%
    05:00 +15°C° 0.3 mm 5 mps 755 mmHg 81%
    06:00 +15°C° 0.3 mm 5 mps 755 mmHg 80%
    07:00 +15°C° 0.3 mm 5 mps 755 mmHg 79%
    08:00 +16°C° 0.1 mm 5 mps 755 mmHg 73%
    09:00 +17°C° 0.1 mm 5 mps 755 mmHg 67%
    10:00 +20°C° 0.1 mm 5 mps 755 mmHg 61%
    11:00 +20°C° 0.1 mm 6 mps 755 mmHg 59%
    12:00 +21°C° 0.1 mm 7 mps 754 mmHg 57%
    13:00 +21°C° 0.1 mm 8 mps 753 mmHg 55%
    14:00 +21°C° 0.2 mm 8 mps 753 mmHg 56%
    15:00 +21°C° 0.2 mm 8 mps 752 mmHg 56%
    16:00 +20°C° 0.2 mm 8 mps 752 mmHg 56%
    17:00 +20°C° 0.2 mm 8 mps 752 mmHg 59%
    18:00 +18°C° 0.2 mm 8 mps 751 mmHg 62%
    19:00 +18°C° 0.2 mm 8 mps 751 mmHg 65%
    20:00 +17°C° 0 mm 8 mps 751 mmHg 65%
    21:00 +17°C° 0 mm 9 mps 751 mmHg 65%
    22:00 +17°C° 0 mm 9 mps 751 mmHg 65%
    23:00 +16°C° 0 mm 9 mps 750 mmHg 65%

    17 November, Sunday

    Time Temperature Precipitation Wind Pressure Humidity
    00:00 +16°C° 0 mm 10 mps 749 mmHg 65%
    01:00 +16°C° 0 mm 10 mps 749 mmHg 65%
    02:00 +16°C° 1 mm 11 mps 748 mmHg 68%
    03:00 +15°C° 1 mm 12 mps 748 mmHg 70%
    04:00 +17°C° 1 mm 13 mps 747 mmHg 73%
    05:00 +17°C° 1.1 mm 13 mps 748 mmHg 70%
    06:00 +15°C° 1.1 mm 13 mps 748 mmHg 67%
    07:00 +15°C° 1.1 mm 13 mps 749 mmHg 64%
    08:00 +16°C° 0 mm 11 mps 750 mmHg 62%
    09:00 +16°C° 0 mm 10 mps 751 mmHg 61%
    10:00 +16°C° 0 mm 8 mps 752 mmHg 60%
    11:00 +16°C° 0.2 mm 8 mps 753 mmHg 57%
    12:00 +16°C° 0.2 mm 7 mps 753 mmHg 54%
    13:00 +16°C° 0.2 mm 7 mps 754 mmHg 52%
    14:00 +16°C° 0.1 mm 6 mps 754 mmHg 52%
    15:00 +16°C° 0.1 mm 5 mps 754 mmHg 53%
    16:00 +15°C° 0.1 mm 4 mps 754 mmHg 53%
    17:00 +15°C° 0 mm 4 mps 755 mmHg 54%
    18:00 +14°C° 0 mm 3 mps 755 mmHg 55%
    19:00 +14°C° 0 mm 3 mps 756 mmHg 56%
    20:00 +14°C° 0 mm 3 mps 756 mmHg 58%
    21:00 +14°C° 0 mm 3 mps 756 mmHg 59%
    22:00 +14°C° 0 mm 3 mps 757 mmHg 61%
    23:00 +14°C° 0.1 mm 3 mps 757 mmHg 61%
    Show more